Regional Weather Roundup
Issued by NWS Green Bay, WI

Home | Current Version | Previous Version | Text Only | Print | Product List | Glossary On
Versions: 1 2 3 4 5 6 7 8 9 10 11 12 13 14 15 16 17 18 19 20 21 22 23 24 25 26 27 28 29 30 31 32 33 34 35 36 37 38 39 40 41 42 43 44 45 46 47 48 49 50
000
ASUS43 KGRB 300600
RWRGRB

NORTH-CENTRAL AND NORTHEAST WISCONSIN REGIONAL WEATHER ROUNDUP
NATIONAL WEATHER SERVICE GREEN BAY WI
100 AM CDT FRI SEP 30 2016

WIZ005-009-010>012-018-019-300700-
NORTH CENTRAL WISCONSIN

CITY           SKY/WX    TMP DP  RH WIND       PRES   REMARKS
IRONWOOD       CLOUDY    52  51  97 NE5       30.45F
MANITOWISH WTR NOT AVBL
ARBOR VITAE    NOT AVBL
EAGLE RIVER    NOT AVBL
LAND O LAKES   NOT AVBL
RHINELANDER    CLEAR     48  48 100 N3        30.41F
PHILLIPS       NOT AVBL
ANTIGO         NOT AVBL
TOMAHAWK       NOT AVBL
MERRILL        NOT AVBL
$$

WIZ013-073-300700-
NORTHEAST WISCONSIN

CITY           SKY/WX    TMP DP  RH WIND       PRES   REMARKS
IRON MOUNTAIN  CLEAR     50  46  86 NW5       30.39F
MARINETTE      CLEAR     54  52  93 NE7       30.37S
$$

WIZ017-030-035>037-045-300700-
CENTRAL WISCONSIN

CITY           SKY/WX    TMP DP  RH WIND       PRES   REMARKS
MEDFORD        NOT AVBL
WAUSAU         CLEAR     53  48  83 NE6       30.36F
MOSINEE        NOT AVBL
MARSHFIELD     CLEAR     55  49  80 NE10      30.36F
WISC RAPIDS    CLEAR     55  51  86 NE8       30.36F
STEVENS POINT  NOT AVBL
WAUPACA        NOT AVBL
SHAWANO        NOT AVBL
CLINTONVILLE   NOT AVBL
WAUTOMA        MOCLDY    57  53  86 NE9       30.33S
$$

WIZ038-039-048-051-300700-
FOX VALLEY

CITY           SKY/WX    TMP DP  RH WIND       PRES   REMARKS
NWS GREEN BAY  CLOUDY    57  56  96 N10       30.33F
APPLETON       NOT AVBL
OSHKOSH        MOCLDY    60  54  80 NE14      30.30F
FOND DU LAC    CLOUDY    61  55  81 NE10      30.29F
$$

WIZ022-050-052-300700-
EAST CENTRAL WISCONSIN

CITY           SKY/WX    TMP DP  RH WIND       PRES   REMARKS
EPHRAIM        NOT AVBL
WASHINGTON ISL NOT AVBL
STURGEON BAY   PTCLDY    59  56  89 N9        30.35F
MANITOWOC      NOT AVBL
SHEBOYGAN      LGT RAIN  61  54  77 NE15      30.28F
$$

LMZ563-521-522-541>543-300700-
LAKESHORE

STATION/POSITION TIME  TEMP    WIND        PRES    VSBY  WAVE
                       AIR SEA DIR/SP/G                  HT/PER
                 (UTC) (F)     (DEG/KT/KT) (MB)    (MI)  (FT/S)
SHEBOYGAN LKSHOR 0500   61      30/ 17/ 18 1025.5F
KEWAUNEE LKSHORE 0500   63      50/  8/ 12 1026.4F
NORTHPORT PIER   0500   61      10/ 12/ 16 1028.1S
N MID LAKE BUOY  0450   65 65   60/ 17/ 21 1027.3F         3/ 4
S GREEN BAY BUOY 0500   59 62   10/ 16/ 19 1027.0F
SISTER BAY LKSHO 0508   59      40/  9/ 12   N/A
CHAMBERS ISLAND  0500   60     350/ 16/ 22 1027.4F
MENOMINEE LKSHOR 0500   57     360/ 14/ 17 1027.1F
$$




USA.gov is the U.S. government's official web portal to all federal, state and local government web resources and services.